MOLNIYA 1-81

Last updated on Tue Jun 27 2023 00:03:05 GMT+0000 (Coordinated Universal Time)

1 21426U 91043A 23176.38697060 .00000077 00000+0 00000+0 0 9992 2 21426 63.8434 297.4629 7010797 265.0152 18.8840 2.00603272234624
UTC large
Height (km)
Speed (km/s)
/
Latitude / Longitude
Inclination (degrees)
Orbital Period (minutes)
Azimuth
Elevation
Range (km)
Doppler Factor

Next 0 passes for location: London (51.5072 / 0.1276)

Sorry there are no passes over London.